Weather Roundup
Issued by NWS Chicago, IL

Home | Current Version | Previous Version | Graphics & Text | Print | Product List | Glossary On
Versions: 1 2 3 4 5 6 7 8 9 10 11 12 13 14 15 16 17 18 19 20 21 22 23 24 25 26 27 28 29 30 31 32 33 34 35 36 37 38 39 40 41 42 43 44 45 46 47 48 49 50
000
NZUS59 KLOT 252003
HRRLOT

CHICAGO AREA WEATHER ROUNDUP
NATIONAL WEATHER SERVICE CHICAGO/ROMEOVILLE IL
300 PM CDT WED MAY 25 2016

NOTE: "FAIR" INDICATES FEW OR NO CLOUDS BELOW 12,000 FEET WITH NO
SIGNIFICANT WEATHER AND/OR OBSTRUCTIONS TO VISIBILITY.

* THESE STATIONS ARE NOT UNDER NWS QUALITY CONTROL. THEY ALSO MAY NOT
  REPORT WEATHER SUCH AS PRECIPITATION OR FOG.

ILZ005-006-012>014-019>023-252100-
NORTHEAST ILLINOIS

CITY           SKY/WX    TMP DP  RH WIND       PRES   REMARKS
OHARE          PTSUNNY   83  60  45 S10       29.92F HX  83
MIDWAY         PTSUNNY   88  59  37 S13G21    29.92F HX  87
AURORA         PTSUNNY   88  61  40 SE12G24   29.91F HX  88
LANSING*       MOSUNNY   87  57  36 S14       29.94F HX  85
WAUKEGAN       MOSUNNY   78  63  59 E9        29.94F HX  80
DUPAGE AIRPORT CLOUDY    85  60  42 SE13      29.92F HX  85
WHEELING       PTSUNNY   84  60  44 SE13      29.93F HX  84
$$

WIZ051-052-058>065-066-070>072-252100-
SOUTHEAST WISCONSIN

CITY           SKY/WX    TMP DP  RH WIND       PRES   REMARKS
MILWAUKEE      CLOUDY    57  50  77 NE12      29.97F
KENOSHA*       MOSUNNY   75  61  61 SE14      29.95F
RACINE*        MOSUNNY   67  55  65 NE9       29.97F
WAUKESHA       SUNNY     72  57  60 E12       29.96F
$$

INZ001>003-010>013-019-020-252100-
NORTHWEST INDIANA

CITY           SKY/WX    TMP DP  RH WIND       PRES   REMARKS
GARY*          PTSUNNY   86  68  54 S8        29.95F HX  89
MICHIGAN CITY* NOT AVBL
RENSSELAER*    NOT AVBL
VALPARAISO     MOSUNNY   86  58  38 S13G21    29.96F HX  85
$$

LMZ740>746-252100-
SOUTHERN LAKE MICHIGAN

STATION/POSITION TIME  SKY/WX   TEMP WIND        PRES    VSBY
                                AIR  DIR/SP/G
                 (UTC)          (F)  (DEG/KT/KT) (MB)    (MI)
HARRISON CRIB    1900            76  100/ 16/ 16   N/A
BURNHAM HARBOR   2000            68   90/  6/ 10   N/A
CALUMET HARBOR   1900                 70/  9/ 12   N/A
BURNS HARBOR     1900            84  180/  7/ 14 1014.9F
MICHIGAN CITY    1900            68   10/  9/  9   N/A
$$

ABBREVIATIONS USED IN REMARKS
   TC - TEMPERATURE IN CELSIUS
  WCI - WIND CHILL INDEX
   HX - HEAT INDEX
  VSB - VISIBILITY
$$



USA.gov is the U.S. government's official web portal to all federal, state and local government web resources and services.